• In Switzerland
  • List of Countries
  • For 7 days
  • Water Temperature
  • Satellite Maps
  • Weather Map
  • Weather Widgets
  • user-avatar
    Login

    Hourly Weather Sad

    Today, 23 September, Sunday

    Time Temperature Precipitation Wind Pressure Humidity
    00:00 +19°C° 0 mm 4 mps 743 mmHg 54%
    01:00 +17°C° 0 mm 5 mps 743 mmHg 60%
    02:00 +15°C° 0 mm 4 mps 743 mmHg 69%
    03:00 +14°C° 0.4 mm 5 mps 744 mmHg 74%
    04:00 +13°C° 0.4 mm 5 mps 744 mmHg 79%
    05:00 +11°C° 0.4 mm 6 mps 744 mmHg 84%
    06:00 +10°C° 0.6 mm 5 mps 744 mmHg 84%
    07:00 +10°C° 0.6 mm 5 mps 745 mmHg 84%
    08:00 +9°C° 0 mm 5 mps 745 mmHg 83%
    09:00 +10°C° 0.1 mm 5 mps 745 mmHg 79%
    10:00 +12°C° 0.1 mm 4 mps 746 mmHg 74%
    11:00 +12°C° 0.1 mm 4 mps 746 mmHg 70%
    12:00 +13°C° 0 mm 4 mps 746 mmHg 64%
    13:00 +15°C° 0 mm 4 mps 746 mmHg 58%
    14:00 +17°C° 0 mm 4 mps 746 mmHg 52%
    15:00 +15°C° 0 mm 4 mps 746 mmHg 54%
    16:00 +16°C° 0 mm 3 mps 746 mmHg 56%
    17:00 +14°C° 0 mm 3 mps 746 mmHg 58%
    18:00 +14°C° 0 mm 2 mps 746 mmHg 62%
    19:00 +13°C° 0 mm 2 mps 746 mmHg 65%
    20:00 +12°C° 0 mm 2 mps 746 mmHg 68%
    21:00 +10°C° 0 mm 2 mps 746 mmHg 70%
    22:00 +10°C° 0 mm 2 mps 746 mmHg 72%
    23:00 +10°C° 0 mm 2 mps 746 mmHg 74%

    Tomorrow, 24 September, Monday

    Time Temperature Precipitation Wind Pressure Humidity
    00:00 +9°C° 0 mm 2 mps 746 mmHg 74%
    01:00 +9°C° 0 mm 2 mps 746 mmHg 75%
    02:00 +9°C° 0 mm 2 mps 746 mmHg 76%
    03:00 +9°C° 0 mm 3 mps 745 mmHg 76%
    04:00 +9°C° 0 mm 3 mps 745 mmHg 77%
    05:00 +8°C° 0 mm 4 mps 744 mmHg 78%
    06:00 +9°C° 0.1 mm 5 mps 744 mmHg 72%
    07:00 +12°C° 0.1 mm 5 mps 744 mmHg 67%
    08:00 +13°C° 0.1 mm 6 mps 743 mmHg 61%
    09:00 +13°C° 0.6 mm 6 mps 743 mmHg 63%
    10:00 +13°C° 0.6 mm 6 mps 742 mmHg 64%
    11:00 +13°C° 0.6 mm 6 mps 742 mmHg 65%
    12:00 +14°C° 0.7 mm 7 mps 740 mmHg 67%
    13:00 +13°C° 0.7 mm 9 mps 739 mmHg 68%
    14:00 +13°C° 0.7 mm 10 mps 738 mmHg 70%
    15:00 +13°C° 1.8 mm 9 mps 738 mmHg 74%
    16:00 +13°C° 1.8 mm 8 mps 737 mmHg 78%
    17:00 +13°C° 1.8 mm 8 mps 737 mmHg 82%
    18:00 +12°C° 1.3 mm 7 mps 737 mmHg 82%
    19:00 +11°C° 1.3 mm 7 mps 738 mmHg 83%
    20:00 +10°C° 1.3 mm 6 mps 738 mmHg 83%
    21:00 +9°C° 0.1 mm 6 mps 738 mmHg 83%
    22:00 +9°C° 0.1 mm 6 mps 739 mmHg 83%
    23:00 +8°C° 0.1 mm 6 mps 739 mmHg 83%

    Day after tomorrow, 25 September, Tuesday

    Time Temperature Precipitation Wind Pressure Humidity
    00:00 +8°C° 0 mm 6 mps 739 mmHg 84%
    01:00 +7°C° 0 mm 6 mps 740 mmHg 85%
    02:00 +7°C° 0 mm 6 mps 740 mmHg 86%
    03:00 +7°C° 0 mm 6 mps 740 mmHg 87%
    04:00 +5°C° 0 mm 6 mps 740 mmHg 89%
    05:00 +6°C° 0 mm 5 mps 740 mmHg 90%
    06:00 +5°C° 0 mm 6 mps 741 mmHg 87%
    07:00 +7°C° 0 mm 6 mps 741 mmHg 85%
    08:00 +7°C° 0 mm 6 mps 742 mmHg 82%
    09:00 +8°C° 0 mm 6 mps 742 mmHg 79%
    10:00 +8°C° 0 mm 6 mps 743 mmHg 76%
    11:00 +9°C° 0 mm 5 mps 743 mmHg 73%
    12:00 +9°C° 0 mm 6 mps 744 mmHg 69%
    13:00 +9°C° 0 mm 6 mps 745 mmHg 65%
    14:00 +9°C° 0 mm 6 mps 745 mmHg 62%
    15:00 +9°C° 0 mm 5 mps 746 mmHg 62%
    16:00 +8°C° 0 mm 5 mps 746 mmHg 63%
    17:00 +8°C° 0 mm 4 mps 747 mmHg 63%
    18:00 +7°C° 0 mm 4 mps 747 mmHg 66%
    19:00 +7°C° 0 mm 3 mps 748 mmHg 68%
    20:00 +5°C° 0 mm 3 mps 748 mmHg 71%
    21:00 +5°C° 0 mm 3 mps 749 mmHg 73%
    22:00 +4°C° 0 mm 3 mps 749 mmHg 76%
    23:00 +4°C° 0 mm 3 mps 749 mmHg 78%

    26 September, Wednesday

    Time Temperature Precipitation Wind Pressure Humidity
    00:00 +3°C° 0 mm 3 mps 750 mmHg 79%
    01:00 +3°C° 0 mm 3 mps 750 mmHg 81%
    02:00 +3°C° 0 mm 3 mps 750 mmHg 82%
    03:00 +3°C° 0 mm 3 mps 751 mmHg 84%
    04:00 +2°C° 0 mm 3 mps 751 mmHg 85%
    05:00 +2°C° 0 mm 3 mps 752 mmHg 87%
    06:00 +3°C° 0 mm 4 mps 752 mmHg 82%
    07:00 +4°C° 0 mm 4 mps 753 mmHg 77%
    08:00 +4°C° 0 mm 4 mps 754 mmHg 72%
    09:00 +6°C° 0 mm 5 mps 754 mmHg 66%
    10:00 +7°C° 0 mm 5 mps 754 mmHg 59%
    11:00 +8°C° 0 mm 5 mps 755 mmHg 52%
    12:00 +8°C° 0 mm 5 mps 755 mmHg 49%
    13:00 +9°C° 0 mm 5 mps 755 mmHg 47%
    14:00 +9°C° 0 mm 5 mps 755 mmHg 44%
    15:00 +10°C° 0 mm 4 mps 755 mmHg 48%
    16:00 +9°C° 0 mm 3 mps 755 mmHg 51%
    17:00 +8°C° 0 mm 2 mps 755 mmHg 55%
    18:00 +7°C° 0 mm 2 mps 755 mmHg 58%
    19:00 +6°C° 0 mm 2 mps 755 mmHg 62%
    20:00 +5°C° 0 mm 2 mps 755 mmHg 65%
    21:00 +5°C° 0 mm 2 mps 755 mmHg 67%
    22:00 +5°C° 0 mm 2 mps 755 mmHg 69%
    23:00 +4°C° 0 mm 3 mps 755 mmHg 72%

    27 September, Thursday

    Time Temperature Precipitation Wind Pressure Humidity
    00:00 +4°C° 0 mm 3 mps 754 mmHg 72%
    01:00 +4°C° 0 mm 3 mps 754 mmHg 72%
    02:00 +3°C° 0 mm 4 mps 754 mmHg 71%
    03:00 +4°C° 0 mm 4 mps 753 mmHg 71%
    04:00 +4°C° 0 mm 4 mps 753 mmHg 70%
    05:00 +3°C° 0 mm 5 mps 752 mmHg 70%
    06:00 +4°C° 0 mm 6 mps 752 mmHg 67%
    07:00 +5°C° 0 mm 7 mps 751 mmHg 63%
    08:00 +6°C° 0 mm 8 mps 751 mmHg 60%
    09:00 +7°C° 0 mm 8 mps 750 mmHg 58%
    10:00 +9°C° 0 mm 8 mps 750 mmHg 56%
    11:00 +9°C° 0 mm 8 mps 750 mmHg 54%
    12:00 +10°C° 0 mm 8 mps 749 mmHg 56%
    13:00 +10°C° 0 mm 8 mps 749 mmHg 58%
    14:00 +11°C° 0 mm 8 mps 748 mmHg 59%
    15:00 +10°C° 0 mm 7 mps 748 mmHg 62%
    16:00 +10°C° 0 mm 6 mps 748 mmHg 65%
    17:00 +10°C° 0 mm 6 mps 748 mmHg 68%
    18:00 +10°C° 0 mm 5 mps 748 mmHg 70%
    19:00 +10°C° 0 mm 5 mps 748 mmHg 72%
    20:00 +9°C° 0 mm 5 mps 749 mmHg 74%
    21:00 +10°C° 0 mm 4 mps 749 mmHg 77%
    22:00 +10°C° 0 mm 4 mps 749 mmHg 80%
    23:00 +10°C° 0 mm 4 mps 749 mmHg 83%

    28 September, Friday

    Time Temperature Precipitation Wind Pressure Humidity
    00:00 +8°C° 0 mm 4 mps 748 mmHg 87%
    01:00 +8°C° 0 mm 4 mps 748 mmHg 90%
    02:00 +8°C° 0 mm 3 mps 748 mmHg 94%
    03:00 +8°C° 0 mm 3 mps 748 mmHg 95%
    04:00 +8°C° 0 mm 3 mps 748 mmHg 95%
    05:00 +8°C° 0 mm 3 mps 748 mmHg 96%
    06:00 +9°C° 0 mm 3 mps 748 mmHg 93%
    07:00 +10°C° 0 mm 4 mps 748 mmHg 90%
    08:00 +10°C° 0 mm 4 mps 748 mmHg 88%
    09:00 +12°C° 0 mm 4 mps 748 mmHg 82%
    10:00 +14°C° 0 mm 5 mps 747 mmHg 76%
    11:00 +16°C° 0 mm 5 mps 747 mmHg 71%
    12:00 +17°C° 0 mm 6 mps 747 mmHg 68%
    13:00 +19°C° 0 mm 6 mps 746 mmHg 64%
    14:00 +20°C° 0 mm 6 mps 746 mmHg 61%
    15:00 +19°C° 0 mm 5 mps 746 mmHg 65%
    16:00 +17°C° 0 mm 5 mps 746 mmHg 69%
    17:00 +17°C° 0 mm 4 mps 745 mmHg 72%
    18:00 +17°C° 0 mm 4 mps 746 mmHg 76%
    19:00 +15°C° 0 mm 4 mps 746 mmHg 79%
    20:00 +14°C° 0 mm 4 mps 746 mmHg 83%
    21:00 +14°C° 0 mm 4 mps 746 mmHg 86%
    22:00 +13°C° 0 mm 3 mps 746 mmHg 88%
    23:00 +13°C° 0 mm 3 mps 746 mmHg 91%
    Show more